Weather in Shenkursk

Russia / Arkhangel'skaya Oblast'     62°06′20″N   42°53′58″E
temp.,
°C
wind,
m/s
gust,
m/s
humid.,
%
clouds,
%
prec.,
mm/h
press.,
hPa
HPBL,
m
28 february, sun
sun2800:00−15ssw229789 0.1 101257
03:00−14ssw229785 0.3 101253
06:00−13ssw119793 0.1 101220
09:00−11ssw009686 0.2 101335
12:00−7nnw019286 0.1 1013215
15:00−5wsw129191 0.1 1014279
18:00−8s129697 0.1 101525
21:00−5sw239798 0.1 101690
1 march, mon
mon100:00−5sw3795100 0.0 1015236
03:00−7sw499498 0.0 1014241
06:00−6ssw5119469 0.1 1011370
09:00−4sw5119384 0.2 1009501
12:000sw61198100 1.2 1005644
15:00+1wsw41199100 2.1 1003631
18:00+1w41099100 1.8 1000547
21:000wnw4998100 3.3 998537
2 march, tue
tue200:00−1w289798 0.5 997315
03:00−2w369497 0.7 997160
06:00−5w239580 0.0 99661
09:00−2w389590 0.1 996772
12:00−1wnw51093100 0.4 995831
15:00−1wnw51088100 0.8 9961109
18:00−3nw61490100 0.3 9981166
21:00−4nnw61389100 0.6 10011106
3 march, wed
wed300:00−7nnw4139368 0.0 1003475
03:00−8nw3119583 0.1 1006425
06:00−7nw4994100 0.1 1006495
09:00−8wnw4994100 0.1 1007520
12:00−6wnw4891100 0.1 1007626
15:00−5wnw4787100 0.2 1006927
18:00−7sw3694100 0.1 1004148
21:00−6ssw3896100 0.2 1002283
4 march, thu
thu400:00−6ssw41095100 0.1 997406
03:00−4ssw51295100 0.7 991684
06:00−3s41096100 2.2 984546
09:000w61195100 4.4 980849
12:00−2wnw61090100 1.8 980975
15:00−5wnw71393100 2.2 983819
18:00−7nw71392100 1.0 986912
21:00−8nw61193100 1.6 990988